SCP
0 0 0 0 0 0 0 1 1 1 1 2 2 2 2 3 3 3 3 4 4 5 4 4 3 3 3 3 3 4 4 4 4 4 4 4 5 5 5 4 3 3 3 3
0 0 0 1 1 0 1 1 1 1 2 2 2 2 2 3 3 3 4 4 4 5 4 4 3 3 4 4 4 4 4 4 4 4 4 5 5 5 5 5 4 4 4 4
0 0 1 1 1 0 1 1 1 1 2 2 1 2 2 2 3 3 3 4 4 4 4 4 3 4 4 4 4 4 4 5 4 4 4 5 5 6 6 6 6 6 6 6
0 1 1 1 0 0 1 1 1 2 2 2 2 2 2 2 3 3 3 3 3 4 4 4 4 4 5 5 5 5 5 5 5 5 6 6 7 8 9 9 8 8 7 7
0 1 1 0 0 1 1 1 1 2 2 2 2 2 2 3 3 4 3 3 3 3 4 4 5 5 6 6 6 7 7 7 7 8 8 10 12 13 13 11 9 8 8 8
0 1 1 1 1 1 1 1 1 2 3 3 3 2 2 3 4 4 4 4 4 4 3 4 5 6 7 8 8 8 8 9 9 10 12 15 18 18 15 12 11 10 8 8
0 1 1 1 1 1 1 1 2 2 3 4 3 3 3 3 4 4 4 4 4 4 3 3 4 6 8 8 8 8 9 11 12 14 16 20 23 21 16 13 12 11 10 10
1 1 1 2 2 2 3 2 3 3 4 4 4 3 3 3 3 4 5 5 5 5 4 3 4 6 7 7 7 9 10 13 15 17 19 23 23 19 15 13 13 13 13 12
1 1 2 2 3 3 4 4 4 5 5 5 4 4 4 4 4 5 6 6 6 5 4 4 4 5 6 7 8 9 12 14 17 20 21 20 17 14 13 13 13 13 13 13
2 2 2 2 3 3 4 4 5 5 5 4 4 5 5 6 6 6 7 7 6 5 4 5 5 6 7 8 9 11 13 15 17 18 17 14 12 11 11 12 12 12 11 10
2 2 2 2 2 2 3 3 5 5 4 4 4 5 6 6 7 7 7 7 6 6 6 7 8 8 9 10 11 12 13 14 15 13 12 10 9 9 9 9 9 9 8 7
1 1 1 2 2 2 2 2 4 5 4 4 4 4 5 6 7 7 7 7 7 8 8 9 10 11 11 11 11 12 12 12 13 12 10 9 9 9 8 6 4 4 4 4
1 1 1 1 1 1 1 2 3 4 4 4 4 4 5 6 7 7 6 7 7 8 9 9 11 12 11 11 10 10 10 11 12 12 11 10 9 9 8 6 3 2 2 2
1 1 1 1 1 1 1 2 2 4 4 4 4 4 5 6 6 6 6 6 7 8 9 10 11 11 10 10 10 10 10 10 11 11 11 9 9 9 9 7 6 4 3 2
1 1 1 1 1 1 2 2 2 3 4 4 4 4 4 5 6 6 6 6 7 8 9 10 11 10 9 9 10 10 10 9 10 12 12 11 10 10 10 11 10 9 8 6
1 1 1 1 1 1 1 2 2 3 3 3 4 3 3 4 5 6 6 6 6 8 9 10 10 9 9 9 9 9 9 8 8 11 12 12 13 14 15 15 15 14 12 10
2 1 1 1 1 1 1 1 1 2 2 3 3 3 3 3 5 6 7 7 7 7 8 8 9 9 9 9 8 8 7 6 7 8 10 11 13 14 14 14 13 12 10 9
1 1 1 1 1 1 1 1 1 2 2 3 3 3 2 3 4 5 6 7 7 7 7 7 7 7 8 7 6 6 5 5 6 7 7 8 8 8 8 7 6 6 6 6
1 1 1 1 1 1 1 1 1 2 2 2 2 2 2 2 3 4 5 6 6 6 5 4 4 5 5 5 5 5 5 5 6 6 6 5 4 4 4 3 3 3 4 4
0 0 0 0 1 1 1 1 1 2 2 2 2 3 3 2 2 3 3 4 4 4 3 3 2 3 2 2 3 4 4 4 5 5 5 4 4 4 4 3 3 3 3 4
1 1 1 1 1 1 1 1 1 2 2 2 3 4 4 3 2 2 3 3 3 3 2 2 2 2 1 2 3 3 3 3 4 4 5 4 4 4 4 4 4 4 4 5
1 1 1 1 1 1 1 1 1 1 1 2 3 4 4 4 3 3 3 3 2 2 2 1 1 1 1 1 2 3 3 3 3 3 3 4 4 4 4 4 4 4 5 5
1 1 1 1 1 1 1 1 1 1 2 2 3 3 4 4 3 3 3 2 2 1 1 1 1 0 1 1 2 2 3 3 2 2 2 2 2 2 3 3 3 4 4 4
1 1 1 1 1 0 0 0 0 1 2 3 3 3 3 3 3 3 2 2 1 1 1 1 0 1 1 1 2 2 2 2 2 2 1 1 2 2 2 2 3 3 3 2
1 1 1 0 0 0 0 0 0 1 2 3 3 3 3 3 3 3 2 1 1 1 1 1 1 1 1 2 2 1 1 1 1 1 1 1 1 1 1 2 2 2 1 1
1 1 0 0 0 0 0 0 0 1 2 2 3 3 2 3 3 3 2 1 1 1 1 2 1 1 1 1 1 1 1 1 1 1 1 1 1 1 1 1 1 1 1 1
0 0 0 0 0 0 0 0 0 1 2 3 2 2 3 3 3 2 2 1 1 1 1 1 1 1 1 1 1 1 1 1 1 1 1 1 1 1 1 1 1 1 1 1
Wind_Speed
10 7 7 9 10 11 13 13 13 9 7 4 3 2 2 1 2 4 5 6 7 8 7 7 7 7 7 7 7 6 7 6 6 5 5 5 5 5 5 4 4 4 4 4
10 9 9 10 11 11 12 12 12 10 7 1 1 1 1 0 2 3 4 5 5 6 6 7 7 7 7 6 6 6 7 7 6 6 6 6 5 5 5 5 5 4 4 4
10 9 10 13 11 11 11 9 10 10 5 2 2 1 1 1 1 2 3 4 4 5 5 5 6 6 6 6 6 6 6 6 6 6 6 6 6 6 6 6 5 5 5 5
8 8 15 5 1 5 7 6 6 6 3 2 2 1 1 0 1 1 2 2 2 3 4 4 5 6 6 6 6 6 6 6 6 6 6 6 6 6 6 5 5 5 5 5
9 12 11 6 3 4 6 5 3 4 2 2 1 3 2 2 2 1 1 1 1 2 2 3 4 5 5 5 5 6 6 6 6 6 6 6 6 6 5 5 5 5 5 5
9 12 12 4 2 2 6 6 1 2 2 1 3 5 2 4 3 2 3 2 2 1 0 1 2 3 5 5 5 5 5 5 5 5 5 6 6 5 4 4 5 5 4 4
12 12 7 2 1 4 9 1 3 2 2 1 2 4 4 3 3 3 3 3 2 2 1 0 2 3 4 4 4 4 4 4 4 5 5 5 5 4 4 4 4 4 4 4
10 13 8 4 0 3 3 3 2 3 3 3 2 2 2 2 2 3 3 3 3 2 2 1 1 3 4 4 3 3 4 4 4 4 5 4 4 4 4 4 5 5 4 4
4 2 3 2 2 3 3 3 4 4 5 4 4 3 3 3 3 3 3 2 2 2 2 1 2 3 4 3 2 3 4 4 4 4 3 3 4 4 5 5 5 4 4 4
3 3 1 1 2 2 3 4 5 5 5 5 5 4 3 3 3 3 3 2 2 2 2 2 1 2 2 2 2 3 4 3 3 3 4 3 3 4 4 4 4 4 4 4
4 4 3 3 3 4 5 5 6 6 6 5 5 5 4 4 4 3 3 3 3 3 2 2 2 2 2 1 2 3 3 3 3 3 3 3 4 3 4 4 3 4 4 4
4 4 4 4 4 6 6 7 7 7 7 6 5 5 5 4 4 3 3 3 3 3 3 2 2 2 2 2 2 3 3 3 3 3 3 4 4 4 3 4 3 5 5 5
5 6 6 6 6 7 7 7 8 7 7 6 5 5 5 4 4 3 4 3 4 3 3 3 2 2 2 2 3 3 3 3 3 3 3 4 4 4 4 3 4 6 6 7
4 5 7 7 7 7 8 8 8 7 6 5 5 5 5 5 4 4 4 4 4 3 3 3 3 2 2 2 2 3 3 3 4 3 4 4 4 5 5 4 4 4 5 7
6 6 7 7 7 7 8 8 8 7 5 5 5 5 5 5 5 4 3 3 3 3 3 3 3 2 2 3 3 4 3 3 3 3 3 4 4 4 4 4 4 3 2 4
7 7 7 7 7 8 8 8 7 7 6 6 5 5 5 5 4 3 3 3 3 3 3 3 3 2 3 3 4 4 3 2 3 3 4 4 4 4 4 4 4 3 3 2
7 7 7 7 7 8 8 7 7 6 6 6 5 5 5 4 3 2 2 2 3 3 3 3 3 3 3 4 4 4 3 2 3 4 4 3 3 3 4 3 3 3 3 1
8 8 7 7 7 7 7 7 6 5 5 5 5 4 4 4 3 2 1 2 2 3 3 3 3 3 4 4 4 4 3 3 3 3 3 3 3 3 4 4 4 4 3 2
6 6 6 6 6 6 6 5 5 4 4 4 4 4 3 3 2 2 2 2 3 4 4 4 3 4 4 4 4 4 4 4 4 3 3 3 4 4 3 3 3 3 3 2
4 4 5 5 5 5 5 4 4 4 4 3 3 3 2 2 2 2 2 2 2 3 4 4 3 3 3 3 4 4 4 4 4 3 3 3 4 3 3 4 4 3 3 2
3 3 4 4 4 4 4 4 4 4 3 3 3 3 3 3 3 3 3 3 2 3 4 3 3 2 3 3 4 3 3 2 2 3 3 3 3 3 3 3 3 3 3 2
3 2 3 3 3 3 3 3 3 3 3 3 3 3 3 3 3 3 3 3 2 2 3 3 2 3 4 4 3 3 2 2 2 2 2 3 3 3 2 3 3 2 2 2
2 3 3 3 3 3 4 3 3 3 3 3 3 3 3 3 3 3 2 2 2 3 3 3 3 3 4 4 2 2 2 3 3 2 2 2 2 2 2 3 2 2 2 2
3 3 3 3 3 3 3 3 3 3 3 2 3 3 3 3 2 2 2 1 2 3 2 2 2 3 4 2 2 1 2 2 2 2 2 2 2 2 2 2 2 2 1 2
3 3 3 3 3 2 2 2 3 3 3 2 2 3 2 2 2 2 2 2 2 2 2 0 0 2 2 2 2 2 1 2 2 2 2 2 3 2 2 2 2 2 2 2
3 2 2 2 3 2 2 2 2 2 2 2 2 1 1 1 2 1 1 1 2 2 2 2 1 1 1 1 2 2 2 1 1 2 2 2 3 3 3 3 3 3 2 2
3 2 2 2 2 2 2 2 2 2 2 2 2 2 1 1 1 1 1 1 2 2 1 1 1 1 1 1 1 2 2 2 2 2 2 2 2 2 2 2 2 2 2 2
Wind_Direction
258 261 250 238 233 230 238 254 265 267 261 276 280 282 302 283 185 174 171 178 184 186 185 186 187 189 194 196 197 197 197 200 196 196 199 205 204 207 208 211 212 210 221 229
242 241 237 241 240 238 242 252 257 259 267 312 294 303 356 15 186 182 182 184 188 187 190 193 192 192 193 196 196 197 200 201 198 201 202 207 208 209 210 212 218 216 223 230
239 233 239 237 238 238 237 245 254 253 260 230 219 235 274 290 225 200 197 191 192 197 200 198 196 193 196 195 194 197 201 202 201 203 205 210 213 210 213 214 214 219 225 228
243 230 238 241 267 251 243 249 265 270 279 260 263 237 137 216 230 212 220 213 211 218 217 209 201 197 202 197 195 196 201 204 204 207 209 210 214 216 220 221 220 223 224 227
240 236 237 218 207 241 244 238 279 272 271 277 217 185 153 46 22 339 312 295 267 253 229 210 202 193 194 198 195 199 205 208 206 209 211 212 216 218 220 223 225 227 223 224
235 242 241 221 112 291 250 221 5 304 286 280 230 237 128 44 11 358 353 341 328 323 261 194 207 194 197 200 198 204 210 212 207 207 210 215 217 219 217 221 225 227 218 223
236 241 244 34 353 231 233 183 36 357 343 316 311 341 11 353 352 360 357 349 335 332 327 239 218 207 208 209 213 220 217 212 210 210 215 216 215 215 215 222 226 231 224 226
234 238 231 50 222 263 2 19 334 328 323 318 324 343 344 336 336 338 346 348 343 340 327 307 227 214 220 220 221 219 217 212 212 216 221 209 207 212 217 224 224 224 222 232
268 283 44 20 20 23 355 327 320 314 315 306 292 299 317 323 324 320 319 324 315 306 293 276 237 227 234 239 229 216 216 215 217 220 222 209 208 210 213 217 230 232 228 231
238 221 236 327 339 340 335 326 320 310 302 292 285 289 298 308 314 306 299 299 297 291 281 272 259 249 247 250 227 221 222 220 216 216 216 209 221 218 224 228 234 235 240 243
228 227 240 250 297 323 331 327 319 311 303 294 285 284 291 297 300 298 296 295 296 292 286 284 270 252 247 243 233 231 229 227 230 226 220 221 228 233 232 235 247 250 251 250
247 242 260 272 298 312 314 314 315 312 306 297 289 284 283 288 294 293 292 292 292 289 284 277 263 245 232 228 226 236 236 225 234 236 229 235 234 234 225 247 220 235 265 272
273 283 285 287 292 297 299 304 305 301 299 294 291 285 281 282 281 277 276 276 279 282 277 264 254 242 229 218 221 230 246 249 249 249 245 243 243 246 238 224 220 231 243 251
261 270 272 277 287 293 297 300 297 293 289 285 283 283 277 272 267 264 271 281 284 278 269 258 251 249 250 229 225 236 246 236 247 243 249 253 248 250 249 241 233 233 220 221
252 257 267 279 283 287 289 287 285 282 284 283 280 280 278 271 265 264 267 271 276 273 269 264 263 272 276 252 238 238 245 244 251 259 251 250 252 250 253 252 250 245 232 193
259 259 261 267 275 282 282 281 283 287 290 290 292 296 290 280 273 267 266 267 271 278 280 270 274 286 285 274 264 253 244 241 250 260 256 246 242 247 250 247 248 249 247 238
255 255 259 268 274 279 281 282 283 288 293 295 303 304 292 277 265 262 277 286 284 285 278 277 287 294 284 277 272 270 266 240 226 247 257 260 260 260 257 250 250 251 251 222
258 261 261 266 277 286 284 281 282 287 293 304 304 299 290 278 273 284 299 306 312 303 302 305 311 297 283 276 274 267 258 249 245 250 259 259 263 263 262 262 257 256 254 187
257 258 263 268 271 275 278 279 282 286 291 292 292 291 293 288 284 287 295 292 289 287 302 318 316 283 282 292 291 266 259 257 255 251 251 251 249 252 255 258 262 262 259 243
257 259 261 266 269 269 273 279 283 286 287 289 290 292 300 308 301 295 291 281 287 306 317 325 301 296 300 308 298 273 261 255 255 253 246 249 253 257 259 261 264 268 271 266
270 266 267 270 276 277 277 275 272 271 280 280 273 276 290 310 319 312 296 285 306 320 313 303 285 301 316 328 286 282 275 265 259 255 250 253 259 264 267 272 275 279 284 285
277 279 289 292 291 293 287 275 275 275 274 273 274 283 290 295 297 296 291 297 308 320 291 291 309 357 339 305 285 297 296 294 278 265 263 259 258 264 273 279 282 285 291 294
292 295 295 295 295 293 294 288 284 281 280 279 276 271 273 284 289 293 298 310 306 319 306 325 355 5 311 275 282 297 307 303 294 290 284 285 286 287 284 281 291 297 299 298
290 290 289 290 285 283 295 304 300 288 279 264 256 256 262 266 274 283 290 300 316 310 317 15 15 324 281 274 297 312 328 317 306 306 302 298 294 296 305 301 295 294 294 281
288 283 280 284 281 282 291 284 278 266 256 253 246 234 239 247 258 273 294 321 341 308 301 47 216 277 280 318 328 335 337 330 326 330 326 321 313 307 303 303 310 313 307 297
285 288 301 297 296 293 291 292 290 283 274 267 265 257 246 234 230 229 242 268 296 300 303 312 313 257 299 331 333 323 316 305 290 300 327 325 322 323 324 327 319 312 308 303
278 272 264 265 263 273 285 286 281 276 274 271 277 283 280 277 261 251 254 267 274 280 296 304 304 302 319 334 343 335 332 335 336 338 337 338 337 335 331 324 321 321 328 334